COSMOS 877

Satellite information

Favourite Embed

Satellite Type and Status

PAYLOADIN ORBIT

Key statistics

Satellite COSMOS 877 at a glance.

Uptime

17903

Days in orbit

Revolutions

≈ 12.5

Per day

Orbit

LEO

Low Earth Orbit

Inclination

74.0

Latest

Satellite identification and parameters

Extended collection of information and parameters for COSMOS 877.

Object identification

Identified? True

Debris? False

Object name: COSMOS 877

International designator: 1976-118G

Object number (NORAD): 9594

Object ID (CCSDS): 9594

Country: COMMONWEALTH OF INDEPENDENT STATES (CIS)

Current information (Y/N): Y

RCS size: MEDIUM

Orbital parameters

Period: 115.077 minutes

Inclination: 74.0276 deg

SMA: 7837.045 km

Apoapsis: 1463.372 km

Periapsis: 1454.448 km

RAAN: 159.0173 deg

Eccentricy: 0.00056937

Argument of periapsis: 138.1371 deg

Mean anomaly: 47.7414 deg

Mean motion: 12.51336864 rev/day

Mean motion (dot): 0.00000002 rev/day2

B* drag term: 0.00011412471 1/REarth

Two-line elements (TLE)

Creation date: Dec. 12, 2025, 10:14 a.m.

Reference frame: TEME

Reference center: EARTH

Epoch: Dec. 12, 2025, 6:06 a.m. UTC

TLE line 0: 0 COSMOS 877

TLE line 1: 1 09594U 76118G 25346.25423363 .00000002 00000-0 11412-3 0 9992

TLE line 2: 2 09594 74.0276 159.0173 0005694 138.1371 47.7414 12.51336864238862

Live tracking on map

Real-time ground track for satellite COSMOS 877.

In-orbit conjunctions

A list of the most updated potential collisions computed for object COSMOS 877.

Target Orbit TCA Probability of collision Miss distance Type
DELTA 1 DEB SSO 2025-12-15 22:53:34 0.0004600103 60.0 (m) DEBRIS
ARIANE 42P DEB LEO 2025-01-23 13:52:58 0.0001270594 158.0 (m) DEBRIS

Associated space launch

Military communications satellites

COSMOS 877 was lifted into orbit during the mission ‘Kosmos-3M | Strela-1M 121-128’, on board a Kosmos-3M space rocket.

The launch took place on Dec. 7, 1976, 10:23 a.m. from 132/1 (132L).

For more information about the launch, click the button.

Launch to space Kosmos-3M | Strela-1M 121-128
Kosmos-3M | Strela-1M 121-128

Agency: N/A

Status: Launch Successful

Launch date: Dec. 7, 1976, 10:23 a.m. UTC

Rocket: Kosmos-3M

Launch pad: 132/1 (132L)

Location: Plesetsk Cosmodrome, Russian Federation

...

Latest news about this satellite

There are no fresh news available about this satellite. Check back as we update our databases every day.


Newsletter sign-up

Weekly statistics, charts and insights to help you stay on top of the space industry.